Tracking 26544 objects as of 9-Dec-2022
HD Live streaming from Space Station
objects crossing your sky now

ATLAS 5 CENTAUR DEB

Track ATLAS 5 CENTAUR DEB now!


NORAD ID: 44647
Int'l Code: 2018-079H
Perigee: 8,343.8 km
Apogee: 34,365.0 km
Inclination: 11.2 °
Period: 765.7 minutes
Semi major axis: 27725 km
RCS: Unknown
Launch date: October 17, 2018
Source: United States (US)
Launch site: AIR FORCE EASTERN TEST RANGE (AFETR)

Note: This is SATELLITE DEBRIS
aabbcc
Your satellite tracking list
Your tracking list is empty




NASA's NSSDC Master Catalog

Two Line Element Set (TLE):
1 44647U 18079H   22342.44646146 -.00000089  00000-0  00000-0 0  9996
2 44647  11.2238 142.7568 4692668 110.0322 305.3744  1.88055964 28379
Source of the keplerian elements: AFSPC